Miscellaneous Local Product
Issued by NWS Hastings, NE

Home | Current Version | Previous Version | Text Only | Print | Product List | Glossary Off
Versions: 1 2 3 4 5 6 7 8 9 10 11 12 13 14 15 16 17 18 19 20 21 22 23 24 25 26 27 28 29 30 31 32 33 34 35 36 37 38 39 40 41 42 43 44 45 46 47 48 49 50

000
AXUS43 KGID 050802
MISGRI

GID CWA HOURLY WEATHER ROUNDUP
NATIONAL WEATHER SERVICE HASTINGS NE
300 AM CDT TUE MAY 05 2015

NOTE: "FAIR" INDICATES FEW OR NO CLOUDS BELOW 12,000 FEET WITH NO
SIGNIFICANT WEATHER AND/OR OBSTRUCTIONS TO VISIBILITY.

...SOUTH CENTRAL NEBRASKA...

CITY           SKY/WX    TMP DP  RH WIND       PRES   REMARKS
GRAND ISLAND   FOG       55  55 100 NE6       30.06F VSB 1/4
HASTINGS       LGT RAIN  56  56 100 E3        30.05S VSB 1/4
KEARNEY        CLOUDY    54  52  94 E8        30.06S VSB 1/2
ORD            CLOUDY    54  53  97 E6        30.05F FOG
YORK           FOG       57  57 100 NE5       30.05F VSB 1/4
AURORA         FOG       56  56 100 E6        30.05S VSB 1/4
LEXINGTON      FOG       54  53  97 E5        30.06F VSB 1/2
HOLDREGE       DRIZZLE   54  53  97 E6        30.05S
HEBRON         DRIZZLE   61  58  90 SW3       30.05S

...NEBRASKA PANHANDLE...

CITY           SKY/WX    TMP DP  RH WIND       PRES   REMARKS
CHADRON        PTCLDY    44  37  76 S5        30.05F
ALLIANCE       CLOUDY    48  42  80 S12       30.06F
SCOTTSBLUFF    CLOUDY    48  43  82 SE9       30.07F
SIDNEY         CLOUDY    45  44  97 SE6       30.07F FOG

...WESTERN AND NORTH CENTRAL NEBRASKA...

CITY           SKY/WX    TMP DP  RH WIND       PRES   REMARKS
VALENTINE      CLOUDY    47  39  74 CALM      30.10R
AINSWORTH      CLOUDY    53  46  75 SE3       30.09S
ONEILL         CLOUDY    53  49  88 CALM      30.10S
BROKEN BOW     FOG       53  52  96 E5        30.06F VSB 1/2
IMPERIAL       FOG       49  47  93 E5        30.07S VSB 1
NORTH PLATTE   CLOUDY    51  50  96 E3        30.06F
MCCOOK         CLOUDY    53  52  96 NE3       30.06F FOG

...EASTERN NEBRASKA...

CITY           SKY/WX    TMP DP  RH WIND       PRES   REMARKS
NORFOLK        CLOUDY    55  53  93 NE6       30.07F
SO SIOUX CITY  CLOUDY    58  50  75 NE7       30.09F
TEKAMAH        LGT RAIN  57  55  93 N7        30.06F FOG
COLUMBUS       CLOUDY    55  50  82 NE5       30.07F
ALBION         LGT RAIN  54  52  93 E3        30.07F
OMAHA EPPLEY   CLOUDY    59  57  93 N9        30.05F
OFFUTT AFB     CLOUDY    62  59  91 CALM      30.03F
MILLARD        CLOUDY    62  59  90 CALM      30.05F
LINCOLN        CLOUDY    61  59  93 SW6       30.04F
NEBRASKA CITY  CLOUDY    61  60  97 SW10      30.03F
BEATRICE       CLOUDY    60  59  96 SW3       30.03F
FALLS CITY     MOCLDY    60  60 100 S6        30.05F

...NORTHERN KANSAS...

CITY           SKY/WX    TMP DP  RH WIND       PRES   REMARKS
GOODLAND       CLOUDY    50  50 100 NE7       30.05F FOG
HILL CITY      LGT RAIN  57  56  96 NE8       30.03F FOG
NORTON         FOG       55  54  94 E3        30.03F VSB 1/2
PHILLIPSBURG   CLOUDY    63  63 100 NE5       30.04F FOG
SMITH CENTER   CLOUDY    59  57  94 SE7       30.05F FOG
HAYS           CLOUDY    59  54  82 E12       30.04F
RUSSELL        CLOUDY    60  60 100 SE9       30.03F
CONCORDIA      LGT RAIN  60  58  92 SW6       30.06F FOG
SALINA         CLOUDY    62  59  90 E3        30.05F
TOPEKA         CLOUDY    62  61  96 CALM      30.07F



USA.gov is the U.S. government's official web portal to all federal, state and local government web resources and services.